27-04-2022, 00:00:05,     53,    0.0,    4.0,   0.00,   0.00, 1021.5,   80.0, -999.0
27-04-2022, 00:00:15,     53,    0.0,    3.9,   0.00,   0.00, 1021.6,   80.0, -999.0
27-04-2022, 00:00:25,     53,    0.0,    4.0,   0.00,   0.00, 1021.6,   79.8, -999.0
27-04-2022, 00:00:35,     53,    0.0,    3.9,   0.00,   0.00, 1021.5,   79.9, -999.0
27-04-2022, 00:00:45,     53,    0.0,    3.9,   0.00,   0.00, 1021.5,   79.9, -999.0
27-04-2022, 00:00:55,     53,    0.0,    3.9,   0.00,   0.00, 1021.5,   80.0, -999.0
27-04-2022, 00:01:05,     53,    0.0,    3.9,   0.00,   0.00, 1021.6,   79.9, -999.0
27-04-2022, 00:01:15,     53,    0.0,    3.9,   0.00,   0.00, 1021.6,   80.0, -999.0
27-04-2022, 00:01:25,     54,    0.0,    3.9,   0.00,   0.00, 1021.5,   80.0, -999.0
27-04-2022, 00:01:35,     54,    0.0,    3.9,   0.00,   0.00, 1021.6,   79.9, -999.0
27-04-2022, 00:01:45,     53,    0.0,    3.8,   0.00,   0.00, 1021.5,   79.9, -999.0
27-04-2022, 00:01:55,     53,    0.0,    3.9,   0.00,   0.00, 1021.6,   80.0, -999.0
27-04-2022, 00:02:05,     53,    0.0,    3.9,   0.00,   0.00, 1021.6,   80.1, -999.0
27-04-2022, 00:02:15,     53,    0.0,    3.8,   0.00,   0.00, 1021.5,   80.0, -999.0
27-04-2022, 00:02:24,     53,    0.0,    3.8,   0.00,   0.00, 1021.6,   80.0, -999.0
27-04-2022, 00:02:35,     53,    0.0,    3.8,   0.00,   0.00, 1021.6,   79.9, -999.0
27-04-2022, 00:02:44,     53,    0.0,    3.8,   0.00,   0.00, 1021.5,   80.0, -999.0
27-04-2022, 00:02:54,     53,    0.0,    3.8,   0.00,   0.00, 1021.5,   80.1, -999.0
27-04-2022, 00:03:04,     53,    0.0,    3.8,   0.00,   0.00, 1021.5,   80.2, -999.0
27-04-2022, 00:03:14,     53,    0.0,    3.8,   0.00,   0.00, 1021.5,   80.2, -999.0
27-04-2022, 00:03:24,     53,    0.0,    3.8,   0.00,   0.00, 1021.6,   80.2, -999.0
27-04-2022, 00:03:34,     53,    0.0,    3.8,   0.00,   0.00, 1021.5,   80.3, -999.0
27-04-2022, 00:03:46,     53,    0.0,    3.8,   0.00,   0.00, 1021.5,   80.4, -999.0
27-04-2022, 00:03:54,     53,    0.0,    3.8,   0.00,   0.00, 1021.5,   80.2, -999.0
27-04-2022, 00:04:04,     53,    0.0,    3.7,   0.00,   0.00, 1021.6,   80.2, -999.0
27-04-2022, 00:04:14,     53,    0.0,    3.7,   0.00,   0.00, 1021.6,   80.2, -999.0
27-04-2022, 00:04:24,     53,    0.0,    3.7,   0.00,   0.00, 1021.5,   80.3, -999.0
27-04-2022, 00:04:34,     53,    0.0,    3.7,   0.00,   0.00, 1021.5,   80.3, -999.0
27-04-2022, 00:04:46,     53,    0.0,    3.7,   0.00,   0.00, 1021.6,   80.2, -999.0
27-04-2022, 00:04:54,     53,    0.0,    3.8,   0.00,   0.00, 1021.5,   80.4, -999.0
27-04-2022, 00:05:04,     53,    0.0,    3.8,   0.00,   0.00, 1021.6,   80.4, -999.0
27-04-2022, 00:05:14,     53,    0.0,    3.7,   0.00,   0.00, 1021.6,   80.4, -999.0
27-04-2022, 00:05:24,     53,    0.0,    3.7,   0.00,   0.00, 1021.5,   80.5, -999.0
27-04-2022, 00:05:33,     53,    0.0,    3.8,   0.00,   0.00, 1021.5,   80.5, -999.0
27-04-2022, 00:05:44,     53,    0.0,    3.8,   0.00,   0.00, 1021.5,   80.5, -999.0
27-04-2022, 00:05:54,     53,    0.0,    3.7,   0.00,   0.00, 1021.5,   80.5, -999.0
27-04-2022, 00:06:03,     53,    0.0,    3.7,   0.00,   0.00, 1021.5,   80.4, -999.0
27-04-2022, 00:06:14,     53,    0.0,    3.7,   0.00,   0.00, 1021.5,   80.5, -999.0
27-04-2022, 00:06:23,     54,    0.0,    3.7,   0.00,   0.00, 1021.6,   80.5, -999.0
27-04-2022, 00:06:33,     53,    0.0,    3.6,   0.00,   0.00, 1021.5,   80.5, -999.0
27-04-2022, 00:06:43,     53,    0.0,    3.8,   0.00,   0.00, 1021.5,   80.5, -999.0
27-04-2022, 00:06:53,     53,    0.0,    3.7,   0.00,   0.00, 1021.6,   80.6, -999.0
27-04-2022, 00:07:03,     53,    0.0,    3.6,   0.00,   0.00, 1021.6,   80.6, -999.0
27-04-2022, 00:07:13,     53,    0.0,    3.7,   0.00,   0.00, 1021.5,   80.6, -999.0
27-04-2022, 00:07:23,     53,    0.0,    3.7,   0.00,   0.00, 1021.5,   80.6, -999.0
27-04-2022, 00:07:33,     53,    0.0,    3.7,   0.00,   0.00, 1021.5,   80.6, -999.0
27-04-2022, 00:07:43,     53,    0.0,    3.7,   0.00,   0.00, 1021.6,   80.8, -999.0
27-04-2022, 00:07:53,     53,    0.0,    3.7,   0.00,   0.00, 1021.5,   80.7, -999.0
27-04-2022, 00:08:03,     53,    0.0,    3.7,   0.00,   0.00, 1021.5,   80.8, -999.0
27-04-2022, 00:08:13,     53,    0.0,    3.7,   0.00,   0.00, 1021.6,   80.7, -999.0
27-04-2022, 00:08:23,     53,    0.0,    3.7,   0.00,   0.00, 1021.5,   80.7, -999.0
27-04-2022, 00:08:33,     54,    0.0,    3.7,   0.00,   0.00, 1021.6,   80.8, -999.0
27-04-2022, 00:08:43,     53,    0.0,    3.7,   0.00,   0.00, 1021.5,   80.8, -999.0
27-04-2022, 00:08:53,     53,    0.0,    3.7,   0.00,   0.00, 1021.6,   80.8, -999.0
27-04-2022, 00:09:03,     53,    0.0,    3.7,   0.00,   0.00, 1021.5,   80.9, -999.0
27-04-2022, 00:09:12,     53,    0.0,    3.6,   0.00,   0.00, 1021.5,   80.8, -999.0
27-04-2022, 00:09:23,     53,    0.0,    3.7,   0.00,   0.00, 1021.6,   80.8, -999.0
27-04-2022, 00:09:32,     53,    0.0,    3.7,   0.00,   0.00, 1021.6,   80.9, -999.0
27-04-2022, 00:09:42,     54,    0.0,    3.6,   0.00,   0.00, 1021.5,   80.8, -999.0
27-04-2022, 00:09:52,     53,    0.0,    3.7,   0.00,   0.00, 1021.5,   80.9, -999.0
27-04-2022, 00:10:02,     54,    0.0,    3.7,   0.00,   0.00, 1021.5,   80.9, -999.0
27-04-2022, 00:10:12,     54,    0.0,    3.7,   0.00,   0.00, 1021.5,   81.0, -999.0
27-04-2022, 00:10:22,     53,    0.0,    3.6,   0.00,   0.00, 1021.5,   80.9, -999.0
27-04-2022, 00:10:32,     53,    0.0,    3.6,   0.00,   0.00, 1021.5,   80.9, -999.0
27-04-2022, 00:10:42,     53,    0.0,    3.6,   0.00,   0.00, 1021.5,   80.9, -999.0
27-04-2022, 00:10:52,     53,    0.0,    3.6,   0.00,   0.00, 1021.6,   80.9, -999.0
27-04-2022, 00:11:02,     53,    0.0,    3.5,   0.00,   0.00, 1021.6,   80.9, -999.0
27-04-2022, 00:11:12,     53,    0.0,    3.5,   0.00,   0.00, 1021.6,   80.9, -999.0
27-04-2022, 00:11:22,     53,    0.0,    3.5,   0.00,   0.00, 1021.6,   80.9, -999.0
27-04-2022, 00:11:32,     53,    0.0,    3.5,   0.00,   0.00, 1021.5,   80.8, -999.0
27-04-2022, 00:11:42,     53,    0.0,    3.5,   0.00,   0.00, 1021.6,   80.9, -999.0
27-04-2022, 00:11:52,     53,    0.0,    3.5,   0.00,   0.00, 1021.6,   80.9, -999.0
27-04-2022, 00:12:02,     54,    0.0,    3.5,   0.00,   0.00, 1021.6,   81.0, -999.0
27-04-2022, 00:12:12,     53,    0.0,    3.5,   0.00,   0.00, 1021.5,   81.1, -999.0
27-04-2022, 00:12:21,     54,    0.0,    3.5,   0.00,   0.00, 1021.6,   81.1, -999.0
27-04-2022, 00:12:32,     53,    0.0,    3.5,   0.00,   0.00, 1021.5,   81.1, -999.0
27-04-2022, 00:12:42,     53,    0.0,    3.5,   0.00,   0.00, 1021.6,   81.2, -999.0
27-04-2022, 00:12:51,     53,    0.0,    3.6,   0.00,   0.00, 1021.5,   81.3, -999.0
27-04-2022, 00:13:01,     53,    0.0,    3.6,   0.00,   0.00, 1021.6,   81.2, -999.0
27-04-2022, 00:13:11,     53,    0.0,    3.6,   0.00,   0.00, 1021.5,   81.2, -999.0
27-04-2022, 00:13:21,     53,    0.0,    3.5,   0.00,   0.00, 1021.6,   81.3, -999.0
27-04-2022, 00:13:31,     53,    0.0,    3.5,   0.00,   0.00, 1021.5,   81.3, -999.0
27-04-2022, 00:13:41,     53,    0.0,    3.6,   0.00,   0.00, 1021.5,   81.3, -999.0
27-04-2022, 00:13:51,     53,    0.0,    3.6,   0.00,   0.00, 1021.6,   81.3, -999.0
27-04-2022, 00:14:01,     53,    0.0,    3.6,   0.00,   0.00, 1021.5,   81.3, -999.0
27-04-2022, 00:14:11,     53,    0.0,    3.6,   0.00,   0.00, 1021.5,   81.4, -999.0
27-04-2022, 00:14:21,     53,    0.0,    3.5,   0.00,   0.00, 1021.5,   81.3, -999.0
27-04-2022, 00:14:31,     53,    0.0,    3.5,   0.00,   0.00, 1021.5,   81.3, -999.0
27-04-2022, 00:14:41,     53,    0.0,    3.5,   0.00,   0.00, 1021.5,   81.4, -999.0
27-04-2022, 00:14:51,     53,    0.0,    3.5,   0.00,   0.00, 1021.5,   81.3, -999.0
27-04-2022, 00:15:01,     53,    0.0,    3.5,   0.00,   0.00, 1021.5,   81.3, -999.0
27-04-2022, 00:15:11,     53,    0.0,    3.5,   0.00,   0.00, 1021.5,   81.3, -999.0
27-04-2022, 00:15:21,     53,    0.0,    3.5,   0.00,   0.00, 1021.6,   81.3, -999.0
27-04-2022, 00:15:30,     53,    0.0,    3.5,   0.00,   0.00, 1021.6,   81.4, -999.0
27-04-2022, 00:15:41,     53,    0.0,    3.5,   0.00,   0.00, 1021.5,   81.4, -999.0
27-04-2022, 00:15:51,     53,    0.0,    3.5,   0.00,   0.00, 1021.5,   81.3, -999.0
27-04-2022, 00:16:00,     53,    0.0,    3.3,   0.00,   0.00, 1021.5,   81.4, -999.0
27-04-2022, 00:16:10,     53,    0.0,    3.5,   0.00,   0.00, 1021.5,   81.5, -999.0
27-04-2022, 00:16:21,     53,    0.0,    3.5,   0.00,   0.00, 1021.6,   81.4, -999.0
27-04-2022, 00:16:30,     53,    0.0,    3.4,   0.00,   0.00, 1021.6,   81.4, -999.0
27-04-2022, 00:16:40,     53,    0.0,    3.4,   0.00,   0.00, 1021.6,   81.4, -999.0
27-04-2022, 00:16:51,     53,    0.0,    3.4,   0.00,   0.00, 1021.6,   81.4, -999.0
27-04-2022, 00:17:00,     53,    0.0,    3.5,   0.00,   0.00, 1021.6,   81.6, -999.0
27-04-2022, 00:17:10,     53,    0.0,    3.4,   0.00,   0.00, 1021.5,   81.6, -999.0
27-04-2022, 00:17:20,     53,    0.0,    3.4,   0.00,   0.00, 1021.6,   81.8, -999.0
27-04-2022, 00:17:30,     53,    0.0,    3.5,   0.00,   0.00, 1021.5,   81.7, -999.0
27-04-2022, 00:17:40,     53,    0.0,    3.4,   0.00,   0.00, 1021.6,   81.6, -999.0
27-04-2022, 00:17:50,     53,    0.0,    3.4,   0.00,   0.00, 1021.5,   81.6, -999.0
27-04-2022, 00:18:00,     53,    0.0,    3.4,   0.00,   0.00, 1021.5,   81.5, -999.0
27-04-2022, 00:18:10,     53,    0.0,    3.4,   0.00,   0.00, 1021.5,   81.7, -999.0
27-04-2022, 00:18:20,     53,    0.0,    3.5,   0.00,   0.00, 1021.6,   81.7, -999.0
27-04-2022, 00:18:30,     53,    0.0,    3.5,   0.00,   0.00, 1021.5,   81.7, -999.0
27-04-2022, 00:18:39,     53,    0.0,    3.4,   0.00,   0.00, 1021.6,   81.8, -999.0
27-04-2022, 00:18:50,     53,    0.0,    3.3,   0.00,   0.00, 1021.5,   81.7, -999.0
27-04-2022, 00:19:00,     53,    0.0,    3.3,   0.00,   0.00, 1021.5,   81.8, -999.0
27-04-2022, 00:19:09,     53,    0.0,    3.4,   0.00,   0.00, 1021.6,   81.8, -999.0
27-04-2022, 00:19:20,     53,    0.0,    3.4,   0.00,   0.00, 1021.6,   81.8, -999.0
27-04-2022, 00:19:30,     53,    0.0,    3.4,   0.00,   0.00, 1021.6,   81.8, -999.0
27-04-2022, 00:19:39,     53,    0.0,    3.4,   0.00,   0.00, 1021.5,   81.8, -999.0
27-04-2022, 00:19:49,     53,    0.0,    3.4,   0.00,   0.00, 1021.6,   81.8, -999.0
27-04-2022, 00:20:00,     53,    0.0,    3.4,   0.00,   0.00, 1021.6,   81.8, -999.0
27-04-2022, 00:20:09,     53,    0.0,    3.4,   0.00,   0.00, 1021.5,   81.9, -999.0
27-04-2022, 00:20:19,     54,    0.0,    3.4,   0.00,   0.00, 1021.6,   81.8, -999.0
27-04-2022, 00:20:29,     53,    0.0,    3.3,   0.00,   0.00, 1021.6,   81.9, -999.0
27-04-2022, 00:20:39,     53,    0.0,    3.3,   0.00,   0.00, 1021.6,   81.9, -999.0
27-04-2022, 00:20:49,     53,    0.0,    3.3,   0.00,   0.00, 1021.5,   82.0, -999.0
27-04-2022, 00:20:59,     53,    0.0,    3.3,   0.00,   0.00, 1021.5,   82.1, -999.0
27-04-2022, 00:21:09,     53,    0.0,    3.4,   0.00,   0.00, 1021.5,   82.0, -999.0
27-04-2022, 00:21:19,     53,    0.0,    3.3,   0.00,   0.00, 1021.6,   82.3, -999.0
27-04-2022, 00:21:29,     53,    0.0,    3.4,   0.00,   0.00, 1021.6,   82.3, -999.0
27-04-2022, 00:21:39,     53,    0.0,    3.3,   0.00,   0.00, 1021.6,   82.3, -999.0
27-04-2022, 00:21:49,     53,    0.0,    3.3,   0.00,   0.00, 1021.5,   82.2, -999.0
27-04-2022, 00:21:59,     53,    0.0,    3.3,   0.00,   0.00, 1021.6,   82.2, -999.0
27-04-2022, 00:22:09,     53,    0.0,    3.3,   0.00,   0.00, 1021.5,   82.3, -999.0
27-04-2022, 00:22:19,     53,    0.0,    3.4,   0.00,   0.00, 1021.5,   82.4, -999.0
27-04-2022, 00:22:29,     53,    0.0,    3.3,   0.00,   0.00, 1021.5,   82.4, -999.0
27-04-2022, 00:22:39,     53,    0.0,    3.3,   0.00,   0.00, 1021.6,   82.4, -999.0
27-04-2022, 00:22:48,     53,    0.0,    3.3,   0.00,   0.00, 1021.6,   82.4, -999.0
27-04-2022, 00:22:58,     53,    0.0,    3.3,   0.00,   0.00, 1021.5,   82.4, -999.0
27-04-2022, 00:23:09,     53,    0.0,    3.4,   0.00,   0.00, 1021.5,   82.4, -999.0
27-04-2022, 00:23:18,     53,    0.0,    3.3,   0.00,   0.00, 1021.5,   82.4, -999.0
27-04-2022, 00:23:28,     53,    0.0,    3.3,   0.00,   0.00, 1021.5,   82.5, -999.0
27-04-2022, 00:23:38,     53,    0.0,    3.4,   0.00,   0.00, 1021.5,   82.5, -999.0
27-04-2022, 00:23:48,     53,    0.0,    3.4,   0.00,   0.00, 1021.5,   82.4, -999.0
27-04-2022, 00:23:58,     53,    0.0,    3.3,   0.00,   0.00, 1021.5,   82.4, -999.0
27-04-2022, 00:24:08,     53,    0.0,    3.2,   0.00,   0.00, 1021.6,   82.5, -999.0
27-04-2022, 00:24:18,     53,    0.0,    3.3,   0.00,   0.00, 1021.5,   82.5, -999.0
27-04-2022, 00:24:28,     53,    0.0,    3.3,   0.00,   0.00, 1021.5,   82.4, -999.0
27-04-2022, 00:24:38,     53,    0.0,    3.3,   0.00,   0.00, 1021.5,   82.5, -999.0
27-04-2022, 00:24:48,     53,    0.0,    3.3,   0.00,   0.00, 1021.5,   82.5, -999.0
27-04-2022, 00:24:58,     53,    0.0,    3.3,   0.00,   0.00, 1021.5,   82.4, -999.0
27-04-2022, 00:25:08,     53,    0.0,    3.3,   0.00,   0.00, 1021.5,   82.6, -999.0
27-04-2022, 00:25:18,     53,    0.0,    3.3,   0.00,   0.00, 1021.5,   82.6, -999.0
27-04-2022, 00:25:28,     53,    0.0,    3.3,   0.00,   0.00, 1021.6,   82.6, -999.0
27-04-2022, 00:25:38,     53,    0.0,    3.3,   0.00,   0.00, 1021.5,   82.5, -999.0
27-04-2022, 00:25:48,     54,    0.0,    3.3,   0.00,   0.00, 1021.5,   82.6, -999.0
27-04-2022, 00:25:57,     53,    0.0,    3.3,   0.00,   0.00, 1021.5,   82.6, -999.0
27-04-2022, 00:26:08,     53,    0.0,    3.2,   0.00,   0.00, 1021.5,   82.5, -999.0
27-04-2022, 00:26:18,     53,    0.0,    3.3,   0.00,   0.00, 1021.5,   82.6, -999.0
27-04-2022, 00:26:27,     53,    0.0,    3.3,   0.00,   0.00, 1021.5,   82.6, -999.0
27-04-2022, 00:26:37,     53,    0.0,    3.3,   0.00,   0.00, 1021.5,   82.7, -999.0
27-04-2022, 00:26:48,     53,    0.0,    3.3,   0.00,   0.00, 1021.6,   82.6, -999.0
27-04-2022, 00:26:57,     53,    0.0,    3.3,   0.00,   0.00, 1021.5,   82.7, -999.0
27-04-2022, 00:27:07,     53,    0.0,    3.3,   0.00,   0.00, 1021.5,   82.7, -999.0
27-04-2022, 00:27:17,     53,    0.0,    3.2,   0.00,   0.00, 1021.5,   82.8, -999.0
27-04-2022, 00:27:27,     53,    0.0,    3.3,   0.00,   0.00, 1021.5,   82.8, -999.0
27-04-2022, 00:27:37,     53,    0.0,    3.3,   0.00,   0.00, 1021.5,   82.8, -999.0
27-04-2022, 00:27:47,     53,    0.0,    3.3,   0.00,   0.00, 1021.5,   82.7, -999.0
27-04-2022, 00:27:57,     53,    0.0,    3.2,   0.00,   0.00, 1021.5,   82.7, -999.0
27-04-2022, 00:28:07,     53,    0.0,    3.2,   0.00,   0.00, 1021.5,   82.7, -999.0
27-04-2022, 00:28:17,     53,    0.0,    3.3,   0.00,   0.00, 1021.5,   82.7, -999.0
27-04-2022, 00:28:27,     53,    0.0,    3.3,   0.00,   0.00, 1021.5,   82.6, -999.0
27-04-2022, 00:28:37,     53,    0.0,    3.2,   0.00,   0.00, 1021.6,   82.6, -999.0
27-04-2022, 00:28:47,     53,    0.0,    3.2,   0.00,   0.00, 1021.5,   82.7, -999.0
27-04-2022, 00:28:57,     53,    0.0,    3.2,   0.00,   0.00, 1021.5,   82.7, -999.0
27-04-2022, 00:29:06,     54,    0.0,    3.2,   0.00,   0.00, 1021.6,   82.7, -999.0
27-04-2022, 00:29:17,     53,    0.0,    3.2,   0.00,   0.00, 1021.6,   82.6, -999.0
27-04-2022, 00:29:27,     53,    0.0,    3.0,   0.00,   0.00, 1021.6,   82.6, -999.0
27-04-2022, 00:29:36,     53,    0.0,    3.2,   0.00,   0.00, 1021.5,   82.7, -999.0
27-04-2022, 00:29:46,     53,    0.0,    3.2,   0.00,   0.00, 1021.5,   82.7, -999.0
27-04-2022, 00:29:57,     53,    0.0,    3.2,   0.00,   0.00, 1021.5,   82.9, -999.0
27-04-2022, 00:30:06,     53,    0.0,    3.2,   0.00,   0.00, 1021.6,   82.9, -999.0
27-04-2022, 00:30:16,     53,    0.0,    3.2,   0.00,   0.00, 1021.6,   82.8, -999.0
27-04-2022, 00:30:26,     53,    0.0,    3.2,   0.00,   0.00, 1021.6,   82.8, -999.0
27-04-2022, 00:30:36,     53,    0.0,    3.2,   0.00,   0.00, 1021.6,   82.9, -999.0
27-04-2022, 00:30:46,     53,    0.0,    3.2,   0.00,   0.00, 1021.5,   82.8, -999.0
27-04-2022, 00:30:56,     53,    0.0,    3.1,   0.00,   0.00, 1021.6,   82.8, -999.0
27-04-2022, 00:31:06,     53,    0.0,    3.2,   0.00,   0.00, 1021.6,   82.8, -999.0
27-04-2022, 00:31:16,     49,    0.0,    3.1,   0.00,   0.00, 1021.6,   82.7, -999.0
27-04-2022, 00:31:26,     53,    0.0,    3.1,   0.00,   0.00, 1021.6,   82.7, -999.0
27-04-2022, 00:31:36,     53,    0.0,    3.1,   0.00,   0.00, 1021.5,   82.8, -999.0
27-04-2022, 00:31:46,     53,    0.0,    3.1,   0.00,   0.00, 1021.6,   82.8, -999.0
27-04-2022, 00:31:56,     53,    0.0,    3.1,   0.00,   0.00, 1021.6,   82.7, -999.0
27-04-2022, 00:32:06,     53,    0.0,    3.0,   0.00,   0.00, 1021.6,   82.7, -999.0
27-04-2022, 00:32:16,     53,    0.0,    3.0,   0.00,   0.00, 1021.6,   82.7, -999.0
27-04-2022, 00:32:26,     53,    0.0,    3.1,   0.00,   0.00, 1021.6,   82.8, -999.0
27-04-2022, 00:32:36,     53,    0.0,    3.0,   0.00,   0.00, 1021.6,   82.9, -999.0
27-04-2022, 00:32:46,     53,    0.0,    3.0,   0.00,   0.00, 1021.6,   82.8, -999.0
27-04-2022, 00:32:55,     53,    0.0,    2.9,   0.00,   0.00, 1021.5,   82.9, -999.0
27-04-2022, 00:33:06,     53,    0.0,    3.0,   0.00,   0.00, 1021.6,   82.8, -999.0
27-04-2022, 00:33:15,     53,    0.0,    3.1,   0.00,   0.00, 1021.6,   82.9, -999.0
27-04-2022, 00:33:25,     53,    0.0,    3.0,   0.00,   0.00, 1021.6,   82.8, -999.0
27-04-2022, 00:33:36,     53,    0.0,    3.0,   0.00,   0.00, 1021.6,   82.8, -999.0
27-04-2022, 00:33:45,     53,    0.0,    3.0,   0.00,   0.00, 1021.6,   82.9, -999.0
27-04-2022, 00:33:55,     53,    0.0,    3.0,   0.00,   0.00, 1021.6,   83.0, -999.0
27-04-2022, 00:34:05,     53,    0.0,    3.0,   0.00,   0.00, 1021.6,   83.0, -999.0
27-04-2022, 00:34:15,     53,    0.0,    3.1,   0.00,   0.00, 1021.6,   83.1, -999.0
27-04-2022, 00:34:25,     53,    0.0,    3.1,   0.00,   0.00, 1021.6,   83.2, -999.0
27-04-2022, 00:34:35,     53,    0.0,    3.0,   0.00,   0.00, 1021.6,   83.1, -999.0
27-04-2022, 00:34:45,     53,    0.0,    3.0,   0.00,   0.00, 1021.6,   83.3, -999.0
27-04-2022, 00:34:55,     53,    0.0,    3.1,   0.00,   0.00, 1021.6,   83.2, -999.0
27-04-2022, 00:35:05,     53,    0.0,    3.1,   0.00,   0.00, 1021.6,   83.2, -999.0
27-04-2022, 00:35:15,     55,    0.0,    3.0,   0.00,   0.00, 1021.6,   83.3, -999.0
27-04-2022, 00:35:25,     53,    0.0,    3.0,   0.00,   0.00, 1021.6,   83.1, -999.0
27-04-2022, 00:35:35,     53,    0.0,    3.1,   0.00,   0.00, 1021.6,   83.2, -999.0
27-04-2022, 00:35:45,     53,    0.0,    3.0,   0.00,   0.00, 1021.6,   83.3, -999.0
27-04-2022, 00:35:55,     53,    0.0,    3.0,   0.00,   0.00, 1021.6,   83.3, -999.0
27-04-2022, 00:36:05,     53,    0.0,    2.9,   0.00,   0.00, 1021.6,   83.3, -999.0
27-04-2022, 00:36:15,     53,    0.0,    3.1,   0.00,   0.00, 1021.6,   83.4, -999.0
27-04-2022, 00:36:24,     53,    0.0,    3.1,   0.00,   0.00, 1021.6,   83.3, -999.0
27-04-2022, 00:36:34,     53,    0.0,    3.0,   0.00,   0.00, 1021.6,   83.4, -999.0
27-04-2022, 00:36:45,     53,    0.0,    3.0,   0.00,   0.00, 1021.6,   83.3, -999.0
27-04-2022, 00:36:54,     53,    0.0,    3.0,   0.00,   0.00, 1021.6,   83.4, -999.0
27-04-2022, 00:37:04,     53,    0.0,    3.0,   0.00,   0.00, 1021.6,   83.4, -999.0
27-04-2022, 00:37:14,     55,    0.0,    3.0,   0.00,   0.00, 1021.6,   83.3, -999.0
27-04-2022, 00:37:24,     53,    0.0,    3.0,   0.00,   0.00, 1021.6,   83.3, -999.0
27-04-2022, 00:37:34,     53,    0.0,    3.0,   0.00,   0.00, 1021.6,   83.3, -999.0
27-04-2022, 00:37:44,     54,    0.0,    3.0,   0.00,   0.00, 1021.6,   83.3, -999.0
27-04-2022, 00:37:54,     53,    0.0,    3.0,   0.00,   0.00, 1021.6,   83.3, -999.0
27-04-2022, 00:38:04,     53,    0.0,    3.0,   0.00,   0.00, 1021.6,   83.3, -999.0
27-04-2022, 00:38:14,     53,    0.0,    3.0,   0.00,   0.00, 1021.6,   83.3, -999.0
27-04-2022, 00:38:24,     53,    0.0,    3.0,   0.00,   0.00, 1021.6,   83.4, -999.0
27-04-2022, 00:38:34,     53,    0.0,    3.0,   0.00,   0.00, 1021.6,   83.5, -999.0
27-04-2022, 00:38:44,     53,    0.0,    3.0,   0.00,   0.00, 1021.6,   83.6, -999.0
27-04-2022, 00:38:54,     53,    0.0,    3.1,   0.00,   0.00, 1021.6,   83.6, -999.0
27-04-2022, 00:39:04,     53,    0.0,    3.0,   0.00,   0.00, 1021.6,   83.7, -999.0
27-04-2022, 00:39:14,     53,    0.0,    2.9,   0.00,   0.00, 1021.6,   83.7, -999.0
27-04-2022, 00:39:24,     53,    0.0,    3.0,   0.00,   0.00, 1021.6,   83.7, -999.0
27-04-2022, 00:39:34,     53,    0.0,    3.1,   0.00,   0.00, 1021.6,   83.6, -999.0
27-04-2022, 00:39:43,     54,    0.0,    3.1,   0.00,   0.00, 1021.6,   83.7, -999.0
27-04-2022, 00:39:54,     53,    0.0,    3.0,   0.00,   0.00, 1021.6,   83.6, -999.0
27-04-2022, 00:40:03,     53,    0.0,    3.0,   0.00,   0.00, 1021.6,   83.7, -999.0
27-04-2022, 00:40:13,     53,    0.0,    3.1,   0.00,   0.00, 1021.6,   83.7, -999.0
27-04-2022, 00:40:24,     53,    0.0,    3.1,   0.00,   0.00, 1021.6,   83.8, -999.0
27-04-2022, 00:40:33,     53,    0.0,    3.1,   0.00,   0.00, 1021.6,   83.8, -999.0
27-04-2022, 00:40:43,     53,    0.0,    3.0,   0.00,   0.00, 1021.6,   83.7, -999.0
27-04-2022, 00:40:53,     53,    0.0,    3.0,   0.00,   0.00, 1021.6,   83.8, -999.0
27-04-2022, 00:41:03,     53,    0.0,    2.9,   0.00,   0.00, 1021.6,   83.7, -999.0
27-04-2022, 00:41:13,     53,    0.0,    3.0,   0.00,   0.00, 1021.6,   83.7, -999.0
27-04-2022, 00:41:23,     53,    0.0,    3.0,   0.00,   0.00, 1021.6,   83.7, -999.0
27-04-2022, 00:41:33,     53,    0.0,    3.0,   0.00,   0.00, 1021.6,   83.8, -999.0
27-04-2022, 00:41:43,     53,    0.0,    3.0,   0.00,   0.00, 1021.6,   83.8, -999.0
27-04-2022, 00:41:53,     53,    0.0,    3.0,   0.00,   0.00, 1021.6,   83.7, -999.0
27-04-2022, 00:42:03,     53,    0.0,    2.9,   0.00,   0.00, 1021.6,   83.8, -999.0
27-04-2022, 00:42:13,     53,    0.0,    3.0,   0.00,   0.00, 1021.6,   83.8, -999.0
27-04-2022, 00:42:23,     53,    0.0,    3.0,   0.00,   0.00, 1021.5,   83.8, -999.0
27-04-2022, 00:42:33,     53,    0.0,    3.0,   0.00,   0.00, 1021.6,   83.9, -999.0
27-04-2022, 00:42:43,     53,    0.0,    3.0,   0.00,   0.00, 1021.6,   83.8, -999.0
27-04-2022, 00:42:53,     53,    0.0,    2.9,   0.00,   0.00, 1021.6,   83.9, -999.0
27-04-2022, 00:43:03,     53,    0.0,    2.9,   0.00,   0.00, 1021.6,   84.0, -999.0
27-04-2022, 00:43:13,     53,    0.0,    3.0,   0.00,   0.00, 1021.6,   83.9, -999.0
27-04-2022, 00:43:22,     53,    0.0,    3.0,   0.00,   0.00, 1021.6,   83.9, -999.0
27-04-2022, 00:43:33,     53,    0.0,    3.0,   0.00,   0.00, 1021.6,   84.0, -999.0
27-04-2022, 00:43:42,     53,    0.0,    3.0,   0.00,   0.00, 1021.6,   84.0, -999.0
27-04-2022, 00:43:52,     53,    0.0,    3.0,   0.00,   0.00, 1021.6,   84.0, -999.0
27-04-2022, 00:44:02,     53,    0.0,    3.0,   0.00,   0.00, 1021.5,   84.1, -999.0
27-04-2022, 00:44:12,     53,    0.0,    3.0,   0.00,   0.00, 1021.6,   84.1, -999.0
27-04-2022, 00:44:22,     53,    0.0,    2.9,   0.00,   0.00, 1021.5,   84.1, -999.0
27-04-2022, 00:44:32,     53,    0.0,    3.0,   0.00,   0.00, 1021.6,   84.1, -999.0
27-04-2022, 00:44:42,     53,    0.0,    3.0,   0.00,   0.00, 1021.6,   84.0, -999.0
27-04-2022, 00:44:52,     53,    0.0,    3.0,   0.00,   0.00, 1021.5,   84.1, -999.0
27-04-2022, 00:45:02,     53,    0.0,    3.0,   0.00,   0.00, 1021.6,   84.2, -999.0
27-04-2022, 00:45:12,     53,    0.0,    3.0,   0.00,   0.00, 1021.6,   84.2, -999.0
27-04-2022, 00:45:22,     53,    0.0,    3.0,   0.00,   0.00, 1021.5,   84.2, -999.0
27-04-2022, 00:45:32,     53,    0.0,    2.9,   0.00,   0.00, 1021.5,   84.2, -999.0
27-04-2022, 00:45:42,     53,    0.0,    3.0,   0.00,   0.00, 1021.6,   84.2, -999.0
27-04-2022, 00:45:52,     53,    0.0,    3.0,   0.00,   0.00, 1021.6,   84.1, -999.0
27-04-2022, 00:46:02,     53,    0.0,    3.0,   0.00,   0.00, 1021.6,   84.2, -999.0
27-04-2022, 00:46:11,     53,    0.0,    3.0,   0.00,   0.00, 1021.6,   84.1, -999.0
27-04-2022, 00:46:22,     53,    0.0,    3.0,   0.00,   0.00, 1021.6,   84.2, -999.0
27-04-2022, 00:46:32,     53,    0.0,    3.0,   0.00,   0.00, 1021.5,   84.3, -999.0
27-04-2022, 00:46:41,     53,    0.0,    2.9,   0.00,   0.00, 1021.5,   84.3, -999.0